EW8016 Weather Reports


Display with metric or nautical units.
time (UTC)temp
F
wind
direction
speed
MPH
gust
MPH
rain 1hr
in
rain 24hr
in
rain mn
in
humidity
%
barometer
mb
20260510213504 48 17 5.0 14.0 0.00 0.00 0.00 75 1010.2
20260510213003 49 25 4.0 13.0 0.00 0.00 0.00 75 1010.3
20260510212504 49 25 4.0 13.0 0.00 0.00 0.00 75 1010.3
20260510212003 49 28 4.0 12.0 0.00 0.00 0.00 75 1010.5
20260510211504 49 24 5.0 13.0 0.00 0.00 0.00 75 1010.4
20260510211005 49 20 5.0 13.0 0.00 0.00 0.00 75 1010.3
20260510210503 49 28 5.0 14.0 0.00 0.00 0.00 75 1010.5
20260510210003 49 27 5.0 14.0 0.00 0.00 0.00 76 1010.4
20260510205505 50 25 4.0 11.0 0.00 0.00 0.00 76 1010.4
20260510205003 50 24 4.0 11.0 0.00 0.00 0.00 76 1010.5
20260510204724 50 17 4.0 13.0 0.00 0.00 0.00 76 1010.6
20260510204003 50 14 5.0 15.0 0.00 0.00 0.00 75 1010.6
20260510203506 50 15 5.0 15.0 0.00 0.00 0.00 75 1010.8
20260510203217 50 18 5.0 15.0 0.00 0.00 0.00 75 1010.8
20260510202505 50 24 5.0 16.0 0.00 0.00 0.00 76 1010.9
20260510202003 50 18 5.0 16.0 0.00 0.00 0.00 76 1010.9
20260510201507 50 13 4.0 13.0 0.00 0.00 0.00 76 1011.1
20260510201003 50 16 4.0 12.0 0.00 0.00 0.00 75 1011.1
20260510200506 50 21 4.0 10.0 0.00 0.00 0.00 75 1011.3
20260510200005 51 26 4.0 10.0 0.00 0.00 0.00 75 1011.3
20260510195718 51 19 4.0 10.0 0.00 0.00 0.00 75 1011.3
20260510195005 51 18 4.0 11.0 0.00 0.00 0.00 74 1011.3
20260510194503 51 17 4.0 11.0 0.00 0.00 0.00 74 1011.3
20260510194005 51 23 4.0 11.0 0.00 0.00 0.00 74 1011.3
20260510193503 51 25 4.0 11.0 0.00 0.00 0.00 74 1011.2
20260510193003 51 21 4.0 10.0 0.00 0.00 0.00 74 1011.2
20260510192503 51 21 5.0 14.0 0.00 0.00 0.00 74 1011.3
20260510192003 52 21 6.0 14.0 0.00 0.00 0.00 73 1011.3
20260510191505 52 26 5.0 13.0 0.00 0.00 0.00 73 1011.3
20260510191013 52 27 5.0 13.0 0.00 0.00 0.00 73 1011.3
20260510190508 52 24 5.0 13.0 0.00 0.00 0.00 73 1011.4
20260510190005 52 27 5.0 13.0 0.00 0.00 0.00 72 1011.4
20260510185505 53 29 6.0 13.0 0.00 0.00 0.00 72 1011.4
20260510185218 53 29 6.0 13.0 0.00 0.00 0.00 72 1011.4
20260510184504 53 21 6.0 15.0 0.00 0.00 0.00 72 1011.4
20260510184003 53 23 6.0 15.0 0.00 0.00 0.00 72 1011.4
20260510183507 54 28 6.0 15.0 0.00 0.00 0.00 71 1011.4
20260510183005 54 28 6.0 15.0 0.00 0.00 0.00 71 1011.5
20260510182504 54 24 6.0 13.0 0.00 0.00 0.00 70 1011.3
20260510182004 55 25 5.0 16.0 0.00 0.00 0.00 70 1011.5
20260510181506 55 27 5.0 16.0 0.00 0.00 0.00 69 1011.4
20260510181008 55 24 5.0 16.0 0.00 0.00 0.00 69 1011.4
20260510180506 55 29 6.0 17.0 0.00 0.00 0.00 69 1011.4
20260510180005 56 37 6.0 17.0 0.00 0.00 0.00 69 1011.5
20260510175503 56 35 6.0 15.0 0.00 0.00 0.00 68 1011.4
20260510175003 56 30 5.0 15.0 0.00 0.00 0.00 68 1011.4
20260510174503 56 31 6.0 16.0 0.00 0.00 0.00 68 1011.4
20260510174006 57 34 6.0 16.0 0.00 0.00 0.00 67 1011.3
20260510173503 57 32 5.0 15.0 0.00 0.00 0.00 68 1011.3
20260510173005 57 30 6.0 17.0 0.00 0.00 0.00 68 1011.3
20260510172505 57 35 7.0 17.0 0.00 0.00 0.00 67 1011.2
20260510172003 58 38 6.0 16.0 0.00 0.00 0.00 68 1011.3
20260510171503 58 37 6.0 15.0 0.00 0.00 0.00 67 1011.3
20260510171003 58 34 7.0 15.0 0.00 0.00 0.00 67 1011.4
20260510170503 58 37 7.0 15.0 0.00 0.00 0.00 67 1011.4
20260510170003 58 35 7.0 15.0 0.00 0.00 0.00 67 1011.4
20260510165719 58 33 7.0 16.0 0.00 0.00 0.00 66 1011.4
20260510165220 59 37 7.0 16.0 0.00 0.00 0.00 66 1011.6
20260510164723 59 33 7.0 16.0 0.00 0.00 0.00 65 1011.7
20260510164003 60 37 6.0 16.0 0.00 0.00 0.00 65 1011.6
20260510163503 60 36 7.0 20.0 0.00 0.00 0.00 65 1011.6
20260510163011 60 35 7.0 20.0 0.00 0.00 0.00 65 1011.5
20260510162716 60 34 6.0 15.0 0.00 0.00 0.00 65 1011.4
20260510162007 61 33 6.0 13.0 0.00 0.00 0.00 64 1011.7
20260510161719 61 28 6.0 13.0 0.00 0.00 0.00 64 1011.7
20260510161003 61 19 7.0 17.0 0.00 0.00 0.00 63 1011.7
20260510160508 62 19 6.0 17.0 0.00 0.00 0.00 63 1011.8
20260510160006 62 23 6.0 13.0 0.00 0.00 0.00 62 1011.8
20260510155505 62 23 5.0 13.0 0.00 0.00 0.00 62 1011.8
20260510155004 62 21 6.0 18.0 0.00 0.00 0.00 62 1012.0
20260510154503 63 20 6.0 18.0 0.00 0.00 0.00 61 1012.0
20260510154004 63 20 5.0 14.0 0.00 0.00 0.00 61 1012.1
20260510153509 63 22 6.0 16.0 0.00 0.00 0.00 61 1012.1
20260510153003 63 22 6.0 16.0 0.00 0.00 0.00 60 1012.1
20260510152503 64 24 5.0 14.0 0.00 0.00 0.00 59 1012.0
20260510152219 64 22 5.0 15.0 0.00 0.00 0.00 60 1012.1
20260510151505 64 16 5.0 16.0 0.00 0.00 0.00 60 1012.1
20260510151223 64 22 6.0 16.0 0.00 0.00 0.00 59 1012.1
20260510150505 65 25 5.0 15.0 0.00 0.00 0.00 58 1012.1
20260510150005 65 5 5.0 12.0 0.00 0.00 0.00 60 1012.2
20260510145504 64 11 5.0 12.0 0.00 0.00 0.00 59 1012.2
20260510145003 64 28 5.0 15.0 0.00 0.00 0.00 58 1012.2
20260510144505 64 29 6.0 15.0 0.00 0.00 0.00 58 1012.3
20260510144004 64 29 5.0 15.0 0.00 0.00 0.00 58 1012.3
20260510143504 65 37 5.0 13.0 0.00 0.00 0.00 57 1012.4
20260510143005 65 33 5.0 12.0 0.00 0.00 0.00 57 1012.3
20260510142504 65 21 5.0 12.0 0.00 0.00 0.00 56 1012.5
20260510142006 65 6 5.0 12.0 0.00 0.00 0.00 56 1012.3
20260510141503 65 4 5.0 15.0 0.00 0.00 0.00 56 1012.3
20260510141006 65 12 6.0 15.0 0.00 0.00 0.00 55 1012.4
20260510140505 66 7 5.0 16.0 0.00 0.00 0.00 55 1012.4
20260510140003 66 5 6.0 16.0 0.00 0.00 0.00 54 1012.5
20260510134503 66 46 5.0 11.0 0.00 0.00 0.00 55 1012.6
20260510134004 66 55 5.0 14.0 0.00 0.00 0.00 54 1012.7
20260510133720 66 37 5.0 14.0 0.00 0.00 0.00 55 1012.7
20260510133003 66 13 5.0 12.0 0.00 0.00 0.00 54 1012.8
20260510132507 66 7 5.0 14.0 0.00 0.00 0.00 55 1012.9
20260510132220 66 4 5.0 14.0 0.00 0.00 0.00 55 1013.0
20260510131504 66 12 5.0 14.0 0.00 0.00 0.00 55 1013.0
20260510131003 66 18 4.0 14.0 0.00 0.00 0.00 54 1013.1
20260510130719 66 21 4.0 12.0 0.00 0.00 0.00 54 1013.0
20260510130004 66 359 6.0 17.0 0.00 0.00 0.00 54 1013.2
20260510125719 66 3 6.0 17.0 0.00 0.00 0.00 55 1013.3
20260510125005 66 20 4.0 12.0 0.00 0.00 0.00 54 1013.3
20260510124506 66 37 5.0 12.0 0.00 0.00 0.00 54 1013.4
20260510124004 66 32 6.0 17.0 0.00 0.00 0.00 54 1013.4
20260510123505 66 20 5.0 17.0 0.00 0.00 0.00 55 1013.5
20260510123003 66 359 5.0 16.0 0.00 0.00 0.00 54 1013.4
20260510122505 66 6 5.0 16.0 0.00 0.00 0.00 55 1013.6
20260510122008 66 12 5.0 14.0 0.00 0.00 0.00 54 1013.5
20260510121504 66 349 5.0 14.0 0.00 0.00 0.00 55 1013.6
20260510121003 66 5 5.0 12.0 0.00 0.00 0.00 55 1013.6
20260510120719 66 9 5.0 11.0 0.00 0.00 0.00 55 1013.7
20260510120004 65 11 5.0 12.0 0.00 0.00 0.00 57 1013.7
20260510115505 65 39 5.0 14.0 0.00 0.00 0.00 58 1013.7
20260510115003 65 41 6.0 14.0 0.00 0.00 0.00 56 1013.8
20260510114717 65 37 5.0 13.0 0.00 0.00 0.00 57 1013.8
20260510114006 65 7 5.0 14.0 0.00 0.00 0.00 57 1013.8
20260510113508 64 3 5.0 12.0 0.00 0.00 0.00 56 1013.9
20260510113005 65 10 3.0 12.0 0.00 0.00 0.00 56 1013.9
20260510112503 66 13 4.0 11.0 0.00 0.00 0.00 57 1014.0
20260510112004 66 27 4.0 11.0 0.00 0.00 0.00 57 1014.0
20260510111503 66 45 4.0 11.0 0.00 0.00 0.00 59 1014.0
20260510111003 65 11 5.0 15.0 0.00 0.00 0.00 58 1014.1
20260510110504 65 340 5.0 16.0 0.00 0.00 0.00 58 1014.2
20260510110008 65 345 5.0 16.0 0.00 0.00 0.00 60 1014.2
20260510105503 64 354 5.0 14.0 0.00 0.00 0.00 62 1014.2
20260510105004 63 18 5.0 11.0 0.00 0.00 0.00 63 1014.2
20260510104503 63 26 4.0 11.0 0.00 0.00 0.00 63 1014.2
20260510104005 63 24 3.0 11.0 0.00 0.00 0.00 65 1014.3
20260510103506 62 28 3.0 10.0 0.00 0.00 0.00 66 1014.2
20260510103217 62 23 3.0 10.0 0.00 0.00 0.00 67 1014.2
20260510102503 62 31 3.0 10.0 0.00 0.00 0.00 68 1014.4
20260510102219 62 32 4.0 10.0 0.00 0.00 0.00 68 1014.4
20260510101505 62 18 3.0 10.0 0.00 0.00 0.00 69 1014.3
20260510101221 62 359 3.0 10.0 0.00 0.00 0.00 69 1014.3
20260510100503 62 12 3.0 10.0 0.00 0.00 0.00 69 1014.4
20260510100003 62 28 4.0 10.0 0.00 0.00 0.00 71 1014.5
20260510095505 62 25 4.0 10.0 0.00 0.00 0.00 70 1014.6
20260510095005 61 22 4.0 11.0 0.00 0.00 0.00 71 1014.7
20260510094503 61 14 3.0 11.0 0.00 0.00 0.00 72 1014.6
20260510094010 61 358 3.0 10.0 0.00 0.00 0.00 72 1014.7
20260510093503 61 350 4.0 10.0 0.00 0.00 0.00 72 1014.8
20260510093005 61 7 4.0 10.0 0.00 0.00 0.00 72 1014.7
20260510092503 61 22 4.0 11.0 0.00 0.00 0.00 73 1014.7
20260510092221 61 20 4.0 11.0 0.00 0.00 0.00 72 1014.7
20260510091504 61 2 5.0 11.0 0.00 0.00 0.00 73 1014.9
20260510091008 60 350 4.0 11.0 0.00 0.00 0.00 73 1014.8
20260510090503 60 2 4.0 11.0 0.00 0.00 0.00 74 1014.8
20260510090003 60 11 4.0 11.0 0.00 0.00 0.00 75 1014.8
20260510085720 60 15 4.0 9.0 0.00 0.00 0.00 75 1014.7
20260510085003 60 25 4.0 10.0 0.00 0.00 0.00 76 1014.8
20260510084508 59 15 4.0 11.0 0.00 0.00 0.00 77 1014.7
20260510084005 59 356 5.0 13.0 0.00 0.00 0.00 77 1014.8
20260510083503 59 346 6.0 13.0 0.00 0.00 0.00 78 1014.9
20260510083003 58 349 6.0 13.0 0.00 0.00 0.00 78 1014.9
20260510082504 58 350 5.0 13.0 0.00 0.00 0.00 78 1015.0
20260510082005 58 347 5.0 14.0 0.00 0.00 0.00 79 1015.0
20260510081503 58 349 5.0 14.0 0.00 0.00 0.00 79 1015.0
20260510081216 57 348 5.0 14.0 0.00 0.00 0.00 79 1015.0
20260510080719 57 337 4.0 11.0 0.00 0.00 0.00 80 1015.0
20260510080003 56 340 3.0 9.0 0.00 0.00 0.00 82 1014.8
20260510075719 56 339 3.0 9.0 0.00 0.00 0.00 82 1014.9
20260510075218 56 332 4.0 9.0 0.00 0.00 0.00 83 1014.9
20260510074503 56 346 4.0 10.0 0.00 0.00 0.00 82 1015.1
20260510073505 56 341 3.0 12.0 0.00 0.00 0.00 84 1015.2
20260510073003 55 335 4.0 12.0 0.00 0.00 0.00 84 1015.1
20260510072505 55 331 4.0 10.0 0.00 0.00 0.00 86 1015.2
20260510072003 54 345 4.0 10.0 0.00 0.00 0.00 86 1015.1
20260510071503 54 352 3.0 8.0 0.00 0.00 0.00 87 1015.0
20260510071005 54 352 4.0 8.0 0.00 0.00 0.00 88 1015.1
20260510070719 54 350 4.0 8.0 0.00 0.00 0.00 88 1015.2
20260510070005 53 337 2.0 5.0 0.00 0.00 0.00 89 1015.3
20260510065505 53 335 2.0 6.0 0.00 0.00 0.00 90 1015.3
20260510065003 52 342 2.0 6.0 0.00 0.00 0.00 90 1015.3
20260510064505 52 341 3.0 8.0 0.00 0.00 0.00 91 1015.2
20260510064008 51 340 2.0 8.0 0.00 0.00 0.00 91 1015.2
20260510063504 51 350 2.0 8.0 0.00 0.00 0.00 91 1015.1
20260510063003 51 353 3.0 8.0 0.00 0.00 0.00 91 1015.1
20260510062506 50 347 3.0 8.0 0.00 0.00 0.00 91 1015.1
20260510062006 50 351 2.0 8.0 0.00 0.00 0.00 92 1015.1
20260510061717 50 355 2.0 7.0 0.00 0.00 0.00 92 1015.2
20260510061003 49 345 2.0 6.0 0.00 0.00 0.00 92 1015.3
20260510060505 49 349 3.0 7.0 0.00 0.00 0.00 92 1015.3
20260510060003 49 352 3.0 7.0 0.00 0.00 0.00 92 1015.3
20260510055719 49 347 3.0 7.0 0.00 0.00 0.00 93 1015.3
20260510055004 48 344 3.0 9.0 0.00 0.00 0.00 93 1015.2
20260510054503 48 343 3.0 9.0 0.00 0.00 0.00 93 1015.3
20260510054007 48 336 2.0 9.0 0.00 0.00 0.00 94 1015.3
20260510053505 48 348 2.0 6.0 0.00 0.00 0.00 94 1015.2
20260510053003 47 350 2.0 5.0 0.00 0.00 0.00 94 1015.3
20260510052506 47 338 1.0 3.0 0.00 0.00 0.00 95 1015.3
20260510052003 47 344 1.0 3.0 0.00 0.00 0.00 94 1015.2
20260510051504 46 345 1.0 3.0 0.00 0.00 0.00 95 1015.3
20260510051003 46 341 0.0 3.0 0.00 0.00 0.00 94 1015.1
20260510050505 46 0 0.0 0.0 0.00 0.00 0.00 94 1015.2
20260510050217 46 0 0.0 0.0 0.00 0.00 0.00 94 1015.2
20260510045503 45 0 0.0 0.0 0.00 0.00 0.00 94 1015.2
20260510045003 45 0 0.0 0.0 0.00 0.00 0.00 94 1015.1
20260510044509 45 0 0.0 0.0 0.00 0.00 0.00 94 1015.2
20260510044006 45 0 0.0 0.0 0.00 0.00 0.00 94 1015.2
20260510043505 45 0 0.0 0.0 0.00 0.00 0.00 94 1015.2
20260510043008 44 0 0.0 0.0 0.00 0.00 0.00 94 1015.1
20260510042503 44 0 0.0 0.0 0.00 0.00 0.00 94 1015.3
20260510042006 44 0 0.0 0.0 0.00 0.00 0.00 94 1015.2
20260510041505 44 0 0.0 0.0 0.00 0.00 0.00 94 1015.1
20260510041005 44 0 0.0 0.0 0.00 0.00 0.00 94 1015.1
20260510040718 44 0 0.0 0.0 0.00 0.00 0.00 94 1015.1
20260510040003 44 0 0.0 0.0 0.00 0.00 0.00 93 1015.0
20260510035503 44 0 0.0 0.0 0.00 0.00 0.00 93 1015.1
20260510035004 44 0 0.0 0.0 0.00 0.00 0.00 93 1015.1
20260510034722 44 0 0.0 0.0 0.00 0.00 0.00 93 1015.1
20260510034006 45 0 0.0 0.0 0.00 0.00 0.00 93 1015.2
20260510033504 45 0 0.0 0.0 0.00 0.00 0.00 93 1015.2
20260510033005 45 0 0.0 0.0 0.00 0.00 0.00 93 1015.2
20260510032505 45 0 0.0 0.0 0.00 0.00 0.00 93 1015.2
20260510032005 45 0 0.0 0.0 0.00 0.00 0.00 93 1015.3
20260510031505 45 0 0.0 0.0 0.00 0.00 0.00 93 1015.3
20260510031003 45 0 0.0 0.0 0.00 0.00 0.00 93 1015.3
20260510030505 45 0 0.0 0.0 0.00 0.00 0.00 93 1015.3
20260510030219 45 0 0.0 0.0 0.00 0.00 0.00 93 1015.3
20260510025722 45 336 0.0 3.0 0.00 0.00 0.00 93 1015.2
20260510025217 45 324 1.0 4.0 0.00 0.00 0.00 93 1015.3
20260510024505 46 326 0.0 4.0 0.00 0.00 0.00 93 1015.3
20260510024003 46 0 0.0 0.0 0.00 0.00 0.00 93 1015.3
20260510023504 46 0 0.0 0.0 0.00 0.00 0.00 92 1015.4
20260510023218 46 0 0.0 0.0 0.00 0.00 0.00 92 1015.4
20260510022506 46 0 0.0 0.0 0.00 0.00 0.00 92 1015.4
20260510022005 46 0 0.0 0.0 0.00 0.00 0.00 92 1015.4
20260510021503 46 0 0.0 0.0 0.00 0.00 0.00 92 1015.3
20260510021003 46 0 0.0 0.0 0.00 0.00 0.00 92 1015.3
20260510020503 46 0 0.0 0.0 0.00 0.00 0.00 92 1015.4
20260510020005 46 0 0.0 0.0 0.00 0.00 0.00 92 1015.4
20260510015505 47 0 0.0 0.0 0.00 0.00 0.00 92 1015.3
20260510015222 47 0 0.0 0.0 0.00 0.00 0.00 92 1015.3
20260510014503 47 0 0.0 0.0 0.00 0.00 0.00 92 1015.4
20260510014004 47 0 0.0 0.0 0.00 0.00 0.00 91 1015.5
20260510013505 47 0 0.0 0.0 0.00 0.00 0.00 91 1015.6
20260510013003 47 0 0.0 0.0 0.00 0.00 0.00 91 1015.5
20260510012503 48 0 0.0 0.0 0.00 0.00 0.00 91 1015.4
20260510012003 48 0 0.0 0.0 0.00 0.00 0.00 91 1015.5
20260510011505 48 0 0.0 0.0 0.00 0.00 0.00 91 1015.4
20260510011003 48 0 0.0 0.0 0.00 0.00 0.00 91 1015.4
20260510010505 48 0 0.0 0.0 0.00 0.00 0.00 91 1015.5
20260510010005 48 0 0.0 0.0 0.00 0.00 0.00 91 1015.4
20260510005505 48 0 0.0 0.0 0.00 0.00 0.00 90 1015.4
20260510005218 48 0 0.0 0.0 0.00 0.00 0.00 90 1015.3
20260510004508 48 0 0.0 0.0 0.00 0.00 0.00 90 1015.4
20260510004003 48 0 0.0 0.0 0.00 0.00 0.00 90 1015.5
20260510003508 48 0 0.0 0.0 0.00 0.00 0.00 90 1015.5
20260510003004 48 0 0.0 0.0 0.00 0.00 0.00 90 1015.6
20260510002505 48 0 0.0 0.0 0.00 0.00 0.00 90 1015.6
20260510002005 48 344 0.0 2.0 0.00 0.00 0.00 90 1015.5
20260510001503 48 340 1.0 3.0 0.00 0.00 0.00 89 1015.7
20260510001007 48 337 0.0 3.0 0.00 0.00 0.00 89 1015.7
20260510000716 49 0 0.0 0.0 0.00 0.00 0.00 89 1015.8
20260510000005 49 0 0.0 0.0 0.00 0.00 0.00 89 1015.8
20260509235503 49 0 0.0 0.0 0.00 0.00 0.00 89 1015.8
20260509235217 49 0 0.0 0.0 0.00 0.00 0.00 89 1015.8
20260509234723 49 0 0.0 0.0 0.00 0.00 0.00 89 1015.9
20260509234217 49 0 0.0 0.0 0.00 0.00 0.00 89 1016.1
20260509233503 49 0 0.0 0.0 0.00 0.00 0.00 88 1016.0
20260509233003 49 0 0.0 0.0 0.00 0.00 0.00 88 1016.0
20260509232503 49 0 0.0 0.0 0.00 0.00 0.00 87 1016.0
20260509232219 49 0 0.0 0.0 0.00 0.00 0.00 88 1016.0
20260509231504 50 0 0.0 0.0 0.00 0.00 0.00 87 1016.0
20260509231003 50 0 0.0 0.0 0.00 0.00 0.00 87 1016.0
20260509230505 50 0 0.0 0.0 0.00 0.00 0.00 87 1016.1
20260509230005 50 0 0.0 0.0 0.00 0.00 0.00 86 1016.1
20260509225506 50 0 0.0 0.0 0.00 0.00 0.00 86 1016.1
20260509225219 50 0 0.0 0.0 0.00 0.00 0.00 86 1016.2
20260509224505 50 0 0.0 0.0 0.00 0.00 0.00 86 1016.3
20260509224003 51 0 0.0 0.0 0.00 0.00 0.00 86 1016.2
20260509223504 51 0 0.0 0.0 0.00 0.00 0.00 86 1016.3
20260509223011 51 0 0.0 0.0 0.00 0.00 0.00 85 1016.4
20260509222508 51 0 0.0 0.0 0.00 0.00 0.00 85 1016.4
20260509222003 51 0 0.0 0.0 0.00 0.00 0.00 85 1016.4
20260509221503 51 0 0.0 0.0 0.00 0.00 0.00 85 1016.4
20260509221005 51 22 0.0 1.0 0.00 0.00 0.00 85 1016.3
20260509220503 51 22 0.0 3.0 0.00 0.00 0.00 85 1016.4
20260509220008 51 22 0.0 3.0 0.00 0.00 0.00 84 1016.4
20260509215503 52 22 0.0 3.0 0.00 0.00 0.00 84 1016.4
20260509215004 52 4 1.0 3.0 0.00 0.00 0.00 84 1016.4
20260509214504 52 356 1.0 3.0 0.00 0.00 0.00 85 1016.4
20260509214003 52 355 0.0 3.0 0.00 0.00 0.00 85 1016.6
20260509213720 52 0 0.0 0.0 0.00 0.00 0.00 85 1016.5